TimePST,TemperatureF,Dew PointF,Humidity,Sea Level PressureIn,VisibilityMPH,Wind Direction,Wind SpeedMPH,Gust SpeedMPH,PrecipitationIn,Events,Conditions,WindDirDegrees,DateUTC
12:56 AM,48.9,18.0,29,30.27,10.0,SSW,5.8,-,N/A,,Clear,200,2014-01-24 08:56:00
1:56 AM,48.0,17.1,29,30.27,10.0,Variable,3.5,-,N/A,,Clear,0,2014-01-24 09:56:00
2:56 AM,48.0,17.1,29,30.28,10.0,Calm,Calm,-,N/A,,Clear,0,2014-01-24 10:56:00
3:56 AM,48.9,17.1,28,30.28,10.0,Calm,Calm,-,N/A,,Clear,0,2014-01-24 11:56:00
4:56 AM,46.9,17.1,30,30.29,10.0,Variable,3.5,-,N/A,,Clear,0,2014-01-24 12:56:00
5:56 AM,46.9,17.1,30,30.30,10.0,Calm,Calm,-,N/A,,Clear,0,2014-01-24 13:56:00
6:56 AM,46.0,17.1,31,30.30,10.0,Variable,3.5,-,N/A,,Clear,0,2014-01-24 14:56:00
7:56 AM,46.9,17.1,30,30.31,10.0,Variable,4.6,-,N/A,,Clear,0,2014-01-24 15:56:00
8:56 AM,50.0,17.1,27,30.31,10.0,Variable,5.8,-,N/A,,Clear,0,2014-01-24 16:56:00
9:56 AM,52.0,18.0,26,30.33,10.0,Variable,4.6,-,N/A,,Clear,0,2014-01-24 17:56:00
10:56 AM,54.0,19.0,25,30.32,10.0,Variable,4.6,-,N/A,,Clear,0,2014-01-24 18:56:00
11:56 AM,55.9,19.0,24,30.32,10.0,Variable,6.9,-,N/A,,Clear,0,2014-01-24 19:56:00
12:56 PM,59.0,19.0,21,30.30,10.0,Variable,5.8,-,N/A,,Clear,0,2014-01-24 20:56:00
1:56 PM,60.1,19.9,21,30.28,10.0,SSW,5.8,-,N/A,,Clear,200,2014-01-24 21:56:00
2:56 PM,62.1,19.0,19,30.27,10.0,North,-9999.0,-,N/A,,Clear,0,2014-01-24 22:56:00
3:56 PM,61.0,18.0,19,30.27,10.0,Calm,Calm,-,N/A,,Clear,0,2014-01-24 23:56:00
4:56 PM,55.9,19.9,25,30.30,10.0,Calm,Calm,-,N/A,,Clear,0,2014-01-25 00:56:00
5:56 PM,50.0,21.0,32,30.32,10.0,Calm,Calm,-,N/A,,Clear,0,2014-01-25 01:56:00
6:56 PM,46.9,19.9,34,30.34,10.0,Calm,Calm,-,N/A,,Clear,0,2014-01-25 02:56:00
7:56 PM,46.0,19.0,34,30.36,10.0,Calm,Calm,-,N/A,,Clear,0,2014-01-25 03:56:00
8:56 PM,46.0,18.0,33,30.37,10.0,Calm,Calm,-,N/A,,Clear,0,2014-01-25 04:56:00
9:56 PM,39.9,18.0,41,30.41,4.0,ENE,3.5,-,N/A,,Haze,60,2014-01-25 05:56:00
10:56 PM,37.0,17.1,44,30.42,5.0,ENE,3.5,-,N/A,,Haze,70,2014-01-25 06:56:00
11:56 PM,35.1,17.1,48,30.41,9.0,NE,4.6,-,N/A,,Clear,50,2014-01-25 07:56:00